Starlink 4132

operational
NORAD ID: 53252 Int'l Des: 2022-086 Owner: SPXS Country: US Constellation: starlink
LEOCIRCULAR

Starlink 4132について

説明を読み込み中...

リアルタイム位置

3D地球を読み込み中...

次回通過

高度履歴

Altitude vs Time

uPlot chart will show altitude changes over time

軌道要素

1 53252U 22086L 25302.74932060 -.00000724 00000-0 -27389-4 0 9996
2 53252 53.2199 61.8857 0001620 97.6562 262.4614 15.08844221181311
Epoch: Oct 29, 2025 • Age: 26 hours

現在のステータス

高度 540.1 km
速度 7.59 km/s
衛星直下点 2.08°N, 106.99°W
打ち上げ日 Jul 24, 2022
運用期間 3.2 years
タイプ internet

技術仕様

分類 Payload
質量 297.00 kg
乾燥質量 275.00 kg
総質量 297.00 kg
長さ 0.20 m
直径 2.80 m
スパン 9.00 m
形状 Box + pan
製造者 SPXS
バスタイプ Starlink
フェーズステータス In Orbit
所有者/国 SPXS/US

大規模コンステレーション

Loading constellations...